[[{"header":{"parameterUnit":"m.s-1","parameterCategory":1,"la1":30.2992,"la2":30.254,"lo1":-89.0895,"lo2":-89.0443,"dy":0.0025,"dx":0.0025,"nx":19,"ny":19,"refTime":"2026-05-22T09:00:00:Z","depth":0,"parameterNumber":2,"parameterNumberName":"U-component_of_WINDS"},"data":[0,0,0,1.3236,1.3237,1.3292,1.3292,1.3368,1.3369,0,0,0,0,0,0,0,0,0,0,0,1.3223,1.3224,1.3235,1.3237,1.3292,1.3292,1.3368,1.3369,0,0,0,0,0,0,0,0,0,0,0,1.3223,1.3224,1.3225,1.3237,1.3292,1.3292,1.3368,1.3324,0,0,0,0,0,0,0,0,0,0,1.3269,1.3262,1.3224,1.3225,1.3238,1.3292,1.3292,1.3322,1.3327,1.3346,0,1.3364,0,1.3368,1.3374,1.3375,0,0,0,1.3234,1.3258,1.327,1.3225,1.3238,1.3292,1.3266,1.3325,1.333,1.3352,1.3365,1.3368,1.3369,1.3375,1.3375,1.3496,1.3496,0,0,1.3231,1.3235,1.3266,1.3273,1.3266,1.3265,1.3268,1.3328,1.3342,1.3366,1.337,1.337,1.3376,1.3376,1.3495,1.3496,0,0,0,1.3224,1.3233,1.3243,1.327,1.328,1.3266,1.327,1.3339,1.3342,1.337,1.3371,1.3376,1.3377,1.3494,1.3495,1.3534,0,0,0,1.3222,1.3229,1.3242,1.3245,1.3279,1.3311,1.3281,1.3338,1.3345,1.3371,1.3376,1.3378,1.3494,1.3495,1.3532,1.3552,0,0,0,1.3218,1.3229,1.3238,1.3245,1.3269,1.331,1.3316,1.3339,1.3346,1.3375,1.3378,1.3493,1.3495,1.3529,1.3548,1.3584,0,0,0,1.3215,1.3273,1.3239,1.3303,1.3269,1.3334,1.3315,1.3364,1.3393,1.3376,1.3494,1.3495,1.3528,1.3545,1.3581,1.3614,1.3629,0,0,1.329,1.3282,1.3319,1.3291,1.3363,1.3325,1.3403,1.3426,1.3424,1.3472,1.3475,1.3533,1.3547,1.3583,1.3711,1.3722,0,0,0,1.3344,1.3371,1.339,1.3418,1.3438,1.3455,1.3466,1.3474,1.3514,1.345,1.3556,1.3565,1.3585,1.3601,1.3611,1.3628,1.3503,1.3503,1.3503,1.3456,1.3451,1.3513,1.3514,1.3543,1.3553,1.3575,1.3588,1.3575,1.36,1.3613,1.3692,1.371,1.3717,1.3735,1.3632,1.3632,1.3632,1.3632,1.3564,1.3601,1.3582,1.3635,1.3629,1.3673,1.3685,1.3674,1.3713,1.3681,1.3699,1.3663,1.373,1.3745,1.3635,1.3634,1.3634,1.3634,1.3634,1.3635,1.3652,1.3662,1.3702,1.3734,1.3734,1.3772,1.3766,1.376,1.3778,1.3791,1.3791,1.3788,1.3785,1.3786,1.3786,1.3786,1.3786,1.3786,1.3705,1.3715,1.3748,1.3773,1.379,1.3812,1.3823,1.384,1.3856,1.3848,1.3849,1.3832,1.3738,1.3714,1.3791,1.379,1.3789,1.3789,1.3789,1.3814,1.3788,1.384,1.3857,1.3886,1.3917,1.3909,1.3943,1.3956,1.3975,1.3955,1.3887,1.3878,1.387,1.3849,1.3956,1.3956,1.3956,1.3956,1.3873,1.3868,1.3919,1.3947,1.3974,1.3971,1.4029,1.4038,1.4042,1.405,1.4034,1.4007,1.3999,1.3994,1.3984,1.3965,1.4099,1.4099,1.4099,1.3939,1.3936,1.3986,1.3992,1.4013,1.4032,1.4085,1.4117,1.4117,1.4104,1.4055,1.4049,1.4005,1.3992,1.3977,1.396,1.3925,0,0]},{"header":{"parameterUnit":"m.s-1","parameterCategory":1,"la1":30.2992,"la2":30.254,"lo1":-89.0895,"lo2":-89.0443,"dy":0.0025,"dx":0.0025,"nx":19,"ny":19,"refTime":"2026-05-22T09:00:00:Z","depth":0,"parameterNumber":3,"parameterNumberName":"V-component_of_WINDS"},"data":[0,0,0,1.4781,1.4786,1.5048,1.5049,1.537,1.5373,0,0,0,0,0,0,0,0,0,0,0,1.4694,1.4696,1.478,1.4787,1.5048,1.5049,1.5369,1.5373,0,0,0,0,0,0,0,0,0,0,0,1.4693,1.4696,1.4698,1.4788,1.5048,1.5049,1.5369,1.5177,0,0,0,0,0,0,0,0,0,0,1.4925,1.4836,1.4695,1.4698,1.4789,1.5047,1.5049,1.5168,1.5189,1.5245,0,1.5292,0,1.5337,1.5393,1.5394,0,0,0,1.4794,1.4819,1.4897,1.4698,1.4791,1.5047,1.4932,1.5179,1.5203,1.5273,1.5297,1.5309,1.5342,1.5395,1.5397,1.5693,1.5694,0,0,1.478,1.4737,1.488,1.4912,1.4869,1.4924,1.494,1.5194,1.5218,1.5298,1.5317,1.5348,1.5397,1.5399,1.5692,1.5693,0,0,0,1.4733,1.4727,1.4799,1.4898,1.4946,1.4931,1.495,1.5207,1.5234,1.5321,1.5351,1.5399,1.5403,1.5691,1.5693,1.5701,0,0,0,1.4725,1.47,1.4792,1.4769,1.4941,1.508,1.4957,1.5216,1.5246,1.535,1.5399,1.5406,1.569,1.5692,1.5699,1.5713,0,0,0,1.468,1.4695,1.4729,1.4766,1.4877,1.5077,1.5119,1.5224,1.5265,1.5394,1.5406,1.5689,1.5692,1.5697,1.571,1.5778,0,0,0,1.4621,1.4736,1.4728,1.4868,1.4874,1.5079,1.5117,1.5273,1.5385,1.54,1.569,1.5693,1.5696,1.5708,1.5775,1.5828,1.5845,0,0,1.4742,1.4748,1.4834,1.4835,1.5029,1.5043,1.524,1.5384,1.5437,1.5605,1.5613,1.57,1.571,1.5777,1.5959,1.5972,0,0,0,1.4857,1.4918,1.4979,1.5082,1.5193,1.5289,1.5407,1.546,1.5604,1.5514,1.5744,1.5751,1.5793,1.582,1.5832,1.587,1.5703,1.5703,1.5703,1.4969,1.5026,1.517,1.5259,1.5358,1.5476,1.5562,1.5654,1.5686,1.5739,1.579,1.5893,1.5923,1.5932,1.5971,1.5822,1.5822,1.5822,1.5822,1.515,1.5245,1.528,1.5432,1.5492,1.5622,1.5739,1.5756,1.5885,1.586,1.59,1.5868,1.5945,1.5982,1.5824,1.5823,1.5823,1.5823,1.5823,1.523,1.5285,1.5345,1.5497,1.5608,1.5694,1.5815,1.5866,1.5916,1.5954,1.6013,1.6013,1.6019,1.5978,1.5979,1.5979,1.5979,1.598,1.598,1.5289,1.5356,1.5451,1.5574,1.5645,1.5745,1.5862,1.5935,1.6027,1.6055,1.6056,1.6081,1.5941,1.5905,1.5986,1.5985,1.5984,1.5983,1.5983,1.5452,1.5422,1.5569,1.5639,1.5787,1.5893,1.5955,1.6096,1.6163,1.622,1.6237,1.6124,1.6136,1.6127,1.6098,1.6224,1.6224,1.6224,1.6224,1.5519,1.5529,1.5688,1.5797,1.591,1.598,1.6143,1.6234,1.6324,1.6368,1.6357,1.6322,1.631,1.6329,1.6316,1.6289,1.6461,1.6461,1.6461,1.5623,1.5645,1.5774,1.5858,1.5977,1.6077,1.6231,1.6356,1.6452,1.6472,1.6404,1.6394,1.6338,1.6316,1.6337,1.6315,1.6267,0,0]}]]